SCP
0 0 0 0 0 0 0 0 0 0 0 0 0 0 0 0 0 0 0 0 0 0 0 0 0 0 0 0 1 1 0 0 0 0 0 0 0 0 0 0 0 0 0
0 0 0 0 0 0 0 0 0 0 0 0 0 0 0 0 0 0 0 0 0 0 0 0 0 0 0 0 1 1 1 0 0 0 0 0 0 0 0 0 0 0 0
0 0 0 0 0 0 0 0 0 0 0 0 0 0 -0 0 0 -0 0 0 0 0 0 0 0 0 0 0 0 1 1 0 0 0 0 0 0 0 0 0 0 0 0
0 0 0 0 0 0 0 0 0 0 0 0 0 0 0 0 0 0 0 0 0 0 0 0 0 0 0 0 0 0 0 0 0 0 0 0 0 0 0 0 0 0 0
0 0 0 0 0 0 -0 -0 0 0 0 0 0 0 0 0 0 0 0 0 0 0 0 0 0 0 0 0 0 0 0 0 0 0 0 0 0 0 0 0 0 0 0
0 0 0 0 0 0 -0 -0 -0 0 0 0 0 0 -0 -0 -0 -0 0 0 0 0 0 0 0 0 0 0 0 0 0 0 0 0 0 0 0 0 0 0 0 0 0
0 0 0 0 0 -0 0 0 0 -0 0 -0 -0 -0 -0 0 0 0 0 0 -0 0 0 0 0 0 0 0 0 0 0 0 0 0 0 0 0 0 0 0 0 0 0
0 0 0 0 0 0 0 0 0 -0 -0 -0 0 -0 -0 -0 -0 -0 0 0 0 0 0 0 0 0 0 0 0 0 0 0 0 0 0 0 0 0 0 0 0 0 0
0 0 0 0 0 0 0 0 0 -0 -0 0 0 0 0 0 -0 -0 -0 0 0 0 0 0 0 0 0 0 0 0 0 0 0 0 0 0 0 0 0 0 0 0 0
0 0 0 0 0 0 0 0 0 0 0 0 0 0 0 0 -0 -0 -0 0 -0 0 0 0 0 0 0 0 0 0 0 0 0 0 0 0 0 0 0 0 0 0 0
0 0 0 0 0 0 0 0 0 0 0 0 0 0 0 0 0 -0 -0 0 0 0 -0 0 0 -0 -0 0 0 0 0 0 0 0 0 0 0 0 0 0 0 0 0
0 0 0 0 0 0 0 0 0 0 0 0 0 0 0 0 -0 -0 -0 -0 -0 0 0 -0 -0 -0 -0 -0 0 0 0 0 0 0 0 0 0 0 0 0 0 0 0
0 0 0 0 0 0 0 0 0 0 0 0 0 0 0 0 0 -0 -0 0 0 0 0 0 0 0 -0 0 -0 0 0 0 0 0 0 0 0 0 0 0 0 0 0
0 0 0 0 0 0 0 0 0 0 0 0 0 0 0 0 0 0 0 0 0 0 0 -0 -0 -0 -0 -0 -0 -0 0 0 0 0 0 0 0 0 0 0 0 0 0
-0 -0 0 0 0 0 0 0 0 0 0 0 0 0 0 0 0 0 0 0 0 0 0 0 0 0 -0 -0 -0 -0 0 0 0 0 0 0 0 0 0 0 0 0 0
0 -0 -0 -0 0 0 0 0 0 0 0 0 0 0 0 0 -0 0 0 -0 -0 0 0 0 0 -0 -0 -0 -0 -0 -0 -0 -0 0 0 0 0 0 0 0 0 0 0
0 -0 -0 -0 -0 0 0 0 0 0 0 0 0 0 -0 0 0 -0 -0 -0 -0 0 0 0 0 0 0 -0 -0 0 0 0 0 0 0 0 0 0 0 0 0 0 0
0 0 -0 -0 -0 -0 -0 -0 -0 0 0 0 0 -0 -0 -0 0 0 0 0 0 0 0 0 0 0 0 0 0 0 0 0 0 0 0 0 0 0 0 0 0 0 0
0 0 0 -0 -0 -0 0 0 0 0 -0 0 0 0 0 0 0 0 0 0 0 0 0 0 0 0 0 0 0 0 0 0 0 0 0 0 0 0 0 0 0 0 0
0 0 0 0 -0 -0 -0 -0 -0 0 0 -0 0 0 0 0 0 0 0 0 0 0 0 0 0 0 0 0 0 0 0 0 0 0 0 0 0 0 0 0 0 0 0
0 0 0 0 0 0 -0 -0 0 0 0 0 0 0 0 0 0 0 0 0 0 0 0 0 0 0 0 0 0 0 0 0 0 0 0 0 0 0 0 0 0 0 0
0 0 0 0 0 0 0 0 0 0 0 0 0 0 0 0 0 0 0 0 0 0 0 0 0 0 0 0 0 0 0 0 0 0 0 0 0 0 0 0 0 0 0
0 0 0 0 0 0 0 0 0 0 0 0 0 0 0 0 0 0 0 0 0 0 0 0 0 0 0 0 0 0 0 0 0 0 0 0 0 0 0 0 0 0 0
0 0 0 0 0 0 0 0 0 0 0 0 0 0 0 0 0 0 0 0 0 0 0 0 0 0 0 0 0 0 0 0 0 0 0 0 0 0 0 0 0 0 0
0 0 0 0 0 0 0 0 0 0 0 0 0 0 0 0 0 0 0 0 0 0 0 0 0 0 0 0 0 0 0 0 0 0 0 0 0 0 0 0 0 0 0
0 0 0 0 0 0 0 0 0 0 0 0 0 0 0 0 0 0 0 0 0 0 0 0 0 0 0 0 0 0 0 0 0 0 0 0 0 0 0 0 0 0 0
Wind_Speed_500mb
57 51 48 43 42 40 39 40 41 41 40 41 42 44 49 51 56 56 53 52 65 72 71 67 76 70 69 71 77 73 73 93 76 40 56 69 70 62 72 73 74 71 80
51 46 42 39 38 35 36 38 38 38 38 39 41 41 44 48 46 47 45 50 57 59 67 65 61 57 61 59 59 65 61 62 77 67 59 55 60 56 49 52 59 62 66
46 42 38 36 34 31 33 35 33 32 33 33 33 34 34 35 40 36 34 43 39 53 57 58 51 60 51 51 56 51 54 51 48 58 65 52 57 52 54 54 52 55 59
42 37 35 33 31 30 31 31 29 27 27 24 24 25 28 28 24 28 28 30 32 32 40 51 57 54 53 57 53 53 48 45 43 45 57 61 63 57 51 51 48 49 53
38 35 32 30 29 27 26 27 27 24 24 24 23 24 24 21 22 25 22 19 26 24 33 36 43 40 50 51 53 57 45 44 49 58 53 41 46 49 43 44 53 54 49
36 33 30 27 26 26 26 26 26 27 26 25 22 21 19 16 20 24 19 16 8 10 16 25 28 22 27 39 49 55 52 50 52 47 50 55 58 51 45 57 61 56 47
33 32 31 29 26 25 25 23 22 24 25 21 19 15 14 8 15 7 5 6 11 10 11 12 13 17 19 29 31 39 56 55 50 47 43 49 54 50 54 58 68 68 60
29 32 33 30 29 27 25 24 24 26 27 25 23 21 18 14 6 2 3 10 11 10 8 6 7 11 19 21 25 32 38 46 50 52 51 51 46 48 47 57 65 69 54
23 29 32 31 29 29 28 27 24 23 27 30 31 30 26 19 10 10 20 28 33 34 32 26 18 12 7 7 12 20 26 35 41 46 48 47 47 49 56 56 65 73 64
16 13 23 27 27 27 27 27 26 27 29 32 35 36 34 28 21 25 34 41 48 51 48 47 43 41 32 23 15 13 15 16 18 34 37 39 44 49 45 47 58 76 77
15 12 12 13 14 17 20 21 24 26 29 34 38 37 36 39 36 37 39 45 47 47 49 49 44 41 45 49 47 42 36 27 20 19 27 31 34 37 37 39 51 66 76
13 11 8 8 9 11 12 14 16 16 21 27 33 36 36 36 35 35 36 35 35 36 41 42 41 39 44 48 50 49 46 42 42 42 42 44 44 45 48 48 52 53 47
12 9 6 2 5 7 9 11 12 16 17 20 23 26 28 28 31 28 27 26 30 35 37 36 33 32 34 42 45 42 40 41 46 49 53 54 51 50 47 45 42 38 36
13 10 6 2 6 7 8 10 11 15 18 22 25 28 31 32 33 33 33 33 34 32 32 32 33 35 36 41 37 37 35 32 33 40 44 44 42 38 35 34 34 36 34
15 15 12 11 10 9 8 11 12 17 19 20 24 23 24 27 29 29 29 31 34 36 34 36 37 37 38 38 36 36 35 33 32 34 32 31 28 25 26 26 25 25 28
23 23 19 16 14 13 12 15 15 16 17 19 22 22 23 24 23 24 25 27 34 31 24 30 34 34 35 35 33 32 31 30 31 29 28 27 25 23 23 24 23 26 32
29 28 26 24 22 18 16 15 14 15 15 16 17 18 19 20 21 22 24 24 25 23 22 27 28 27 28 27 26 25 28 29 29 28 28 28 27 27 27 29 29 27 30
37 34 32 28 26 23 18 15 14 13 13 12 12 14 16 17 16 18 18 20 17 18 21 23 23 24 24 23 22 20 19 21 21 22 23 25 25 24 25 25 25 23 24
46 43 40 36 32 29 25 20 16 12 9 7 7 6 7 7 7 7 7 8 9 10 11 11 11 12 12 13 14 14 15 16 17 16 18 20 22 20 21 23 24 23 22
51 46 42 41 38 35 30 25 21 18 16 13 11 8 7 6 6 6 6 7 9 10 11 12 13 13 13 11 10 7 5 5 8 11 14 16 18 19 19 20 21 19 19
58 55 50 46 43 38 34 30 27 24 20 16 14 11 8 7 5 3 3 2 2 2 2 2 3 3 5 8 10 11 13 14 15 15 13 12 12 11 11 11 11 11 10
61 58 55 51 45 42 37 34 32 28 25 21 19 19 16 15 13 12 12 11 10 9 8 7 7 7 7 6 7 8 11 13 14 14 14 14 13 12 11 10 10 10 10
64 60 56 53 47 43 40 37 33 30 28 25 24 24 21 19 18 19 19 19 19 18 17 16 15 15 14 14 13 13 13 14 15 15 15 14 13 12 11 11 11 12 13
65 61 57 53 50 47 43 39 36 33 32 30 29 28 27 26 25 25 26 26 25 24 24 23 22 20 19 20 20 19 19 19 20 20 19 17 16 16 15 15 16 16 16
66 62 58 55 51 48 46 43 41 39 37 35 34 32 32 32 31 31 31 32 32 30 28 27 26 24 24 24 24 24 26 27 27 25 24 24 23 22 21 21 21 21 21
66 63 59 56 54 51 49 47 44 42 39 37 35 34 35 35 36 37 36 36 35 34 33 31 30 29 29 29 29 29 30 30 29 29 29 29 28 27 26 26 26 26 26
Wind_Direction_500mb
326 328 323 323 318 311 308 308 309 307 305 301 297 293 285 277 279 280 273 262 246 243 242 245 239 238 235 235 234 237 238 242 257 237 232 232 231 238 235 234 236 240 240
334 329 327 326 318 314 315 314 313 310 308 303 300 295 286 285 280 275 273 259 248 246 235 233 236 233 232 230 230 233 236 230 219 235 242 234 231 219 219 222 228 229 236
336 331 333 332 326 323 318 317 313 313 309 305 306 302 290 290 272 270 267 250 237 230 233 231 225 223 222 230 230 230 230 235 233 224 223 230 214 218 216 221 226 229 234
338 337 339 337 337 338 330 326 321 317 314 313 313 311 303 286 279 278 266 252 242 238 223 240 238 229 231 233 229 231 230 231 237 228 234 226 220 222 215 219 214 228 228
345 347 345 344 348 344 340 336 330 324 319 318 317 316 317 309 297 287 271 273 244 235 226 225 237 244 237 236 232 224 224 233 233 232 225 230 237 223 215 221 221 213 214
352 354 356 357 357 355 353 349 341 336 335 329 325 320 314 314 300 292 257 259 253 239 232 230 238 247 243 240 236 222 216 218 224 219 225 231 226 229 234 223 215 207 189
358 9 9 10 11 11 11 10 9 8 0 356 353 343 338 333 293 302 224 270 288 259 240 223 227 252 253 248 241 227 215 214 223 233 232 235 233 235 237 225 212 205 197
3 22 20 22 24 25 25 27 29 32 30 32 35 33 27 28 9 348 205 187 178 148 143 168 216 229 235 232 233 226 218 215 217 228 232 236 240 246 230 224 215 210 190
346 26 29 30 30 32 35 35 37 47 54 59 61 57 48 43 55 111 130 126 120 106 92 86 97 122 127 173 205 215 218 225 225 227 228 230 234 237 234 226 212 195 171
331 12 35 34 38 41 40 41 47 58 65 71 74 74 71 70 88 112 113 108 103 98 93 86 77 76 78 85 112 138 178 184 216 233 232 235 234 226 221 217 217 195 179
304 324 353 7 11 33 44 48 50 53 59 64 69 71 79 80 84 87 89 94 91 95 94 90 89 86 84 85 86 90 97 105 122 154 166 170 175 182 186 191 196 196 179
286 300 326 354 7 20 31 34 41 45 49 56 60 62 62 70 78 80 77 80 89 90 88 85 87 90 89 84 83 88 97 99 107 114 122 128 136 143 146 157 165 173 178
276 276 286 337 35 38 45 61 66 68 68 74 75 76 73 70 71 75 85 86 83 84 83 83 90 94 90 91 86 89 94 100 107 111 110 112 117 122 127 134 144 152 147
257 246 226 192 99 80 73 69 66 74 76 78 77 74 76 78 76 76 78 80 80 80 84 85 85 86 84 83 92 93 94 95 98 103 110 113 113 116 119 122 127 127 136
229 221 196 171 143 122 106 99 96 97 90 85 78 80 79 76 74 74 77 82 80 74 77 80 81 79 79 79 80 83 87 94 102 105 111 114 116 117 121 120 122 130 141
214 212 194 174 160 148 140 126 114 101 94 93 91 85 90 86 84 85 80 80 81 74 77 78 77 75 75 77 81 86 92 96 97 100 104 109 116 122 126 125 125 133 140
209 209 199 183 169 162 153 134 118 97 90 86 87 81 76 78 76 71 71 69 76 79 77 79 79 80 82 85 86 88 95 99 100 105 111 115 118 120 123 126 130 135 137
208 209 210 197 187 180 175 165 152 139 121 109 94 87 83 78 77 79 79 80 79 83 81 84 85 88 92 95 98 99 101 102 105 110 116 119 121 126 129 130 128 131 133
209 207 209 203 198 195 190 189 186 178 168 154 129 107 92 91 89 97 103 109 108 105 101 93 89 82 70 63 70 82 93 103 112 117 122 125 126 125 130 130 132 133 136
209 207 210 210 206 204 202 200 203 208 210 209 207 193 180 160 157 152 141 129 124 121 123 128 133 132 133 139 142 140 129 116 120 127 131 132 133 134 136 136 136 140 144
208 207 207 211 211 208 208 210 214 218 223 226 235 235 239 238 244 242 238 223 203 167 151 137 133 136 144 153 158 165 169 176 179 177 175 171 164 161 160 158 156 156 153
209 210 211 212 212 215 215 217 221 225 230 233 242 243 245 242 240 247 251 250 250 250 250 251 248 240 231 222 209 200 192 187 188 186 185 185 183 179 180 181 182 181 182
210 211 213 216 216 218 221 225 228 233 236 241 248 252 254 255 252 251 252 252 248 246 246 248 249 250 249 247 241 231 216 207 204 201 201 202 202 203 205 204 200 193 187
212 212 215 219 221 222 227 231 234 238 240 244 250 254 257 258 256 254 253 252 247 245 244 244 244 245 246 246 243 238 232 226 223 221 220 220 223 225 225 224 220 215 213
213 213 216 220 224 227 230 233 236 239 241 244 247 250 253 255 254 252 252 252 250 247 245 246 247 249 249 247 241 235 229 226 225 224 225 228 231 233 232 229 225 224 224
213 215 218 221 225 228 232 235 238 240 242 245 249 252 254 254 251 248 247 245 244 244 243 243 246 249 249 246 242 238 233 230 229 230 232 234 237 239 239 236 235 235 236
Wind_Speed_850mb
57 51 48 43 42 40 39 40 41 41 40 41 42 44 49 51 56 56 53 52 65 72 71 67 76 70 69 71 77 73 73 93 76 40 56 69 70 62 72 73 74 71 80
51 46 42 39 38 35 36 38 38 38 38 39 41 41 44 48 46 47 45 50 57 59 67 65 61 57 61 59 59 65 61 62 77 67 59 55 60 56 49 52 59 62 66
46 42 38 36 34 31 33 35 33 32 33 33 33 34 34 35 40 36 34 43 39 53 57 58 51 60 51 51 56 51 54 51 48 58 65 52 57 52 54 54 52 55 59
42 37 35 33 31 30 31 31 29 27 27 24 24 25 28 28 24 28 28 30 32 32 40 51 57 54 53 57 53 53 48 45 43 45 57 61 63 57 51 51 48 49 53
38 35 32 30 29 27 26 27 27 24 24 24 23 24 24 21 22 25 22 19 26 24 33 36 43 40 50 51 53 57 45 44 49 58 53 41 46 49 43 44 53 54 49
36 33 30 27 26 26 26 26 26 27 26 25 22 21 19 16 20 24 19 16 8 10 16 25 28 22 27 39 49 55 52 50 52 47 50 55 58 51 45 57 61 56 47
33 32 31 29 26 25 25 23 22 24 25 21 19 15 14 8 15 7 5 6 11 10 11 12 13 17 19 29 31 39 56 55 50 47 43 49 54 50 54 58 68 68 60
29 32 33 30 29 27 25 24 24 26 27 25 23 21 18 14 6 2 3 10 11 10 8 6 7 11 19 21 25 32 38 46 50 52 51 51 46 48 47 57 65 69 54
23 29 32 31 29 29 28 27 24 23 27 30 31 30 26 19 10 10 20 28 33 34 32 26 18 12 7 7 12 20 26 35 41 46 48 47 47 49 56 56 65 73 64
16 13 23 27 27 27 27 27 26 27 29 32 35 36 34 28 21 25 34 41 48 51 48 47 43 41 32 23 15 13 15 16 18 34 37 39 44 49 45 47 58 76 77
15 12 12 13 14 17 20 21 24 26 29 34 38 37 36 39 36 37 39 45 47 47 49 49 44 41 45 49 47 42 36 27 20 19 27 31 34 37 37 39 51 66 76
13 11 8 8 9 11 12 14 16 16 21 27 33 36 36 36 35 35 36 35 35 36 41 42 41 39 44 48 50 49 46 42 42 42 42 44 44 45 48 48 52 53 47
12 9 6 2 5 7 9 11 12 16 17 20 23 26 28 28 31 28 27 26 30 35 37 36 33 32 34 42 45 42 40 41 46 49 53 54 51 50 47 45 42 38 36
13 10 6 2 6 7 8 10 11 15 18 22 25 28 31 32 33 33 33 33 34 32 32 32 33 35 36 41 37 37 35 32 33 40 44 44 42 38 35 34 34 36 34
15 15 12 11 10 9 8 11 12 17 19 20 24 23 24 27 29 29 29 31 34 36 34 36 37 37 38 38 36 36 35 33 32 34 32 31 28 25 26 26 25 25 28
23 23 19 16 14 13 12 15 15 16 17 19 22 22 23 24 23 24 25 27 34 31 24 30 34 34 35 35 33 32 31 30 31 29 28 27 25 23 23 24 23 26 32
29 28 26 24 22 18 16 15 14 15 15 16 17 18 19 20 21 22 24 24 25 23 22 27 28 27 28 27 26 25 28 29 29 28 28 28 27 27 27 29 29 27 30
37 34 32 28 26 23 18 15 14 13 13 12 12 14 16 17 16 18 18 20 17 18 21 23 23 24 24 23 22 20 19 21 21 22 23 25 25 24 25 25 25 23 24
46 43 40 36 32 29 25 20 16 12 9 7 7 6 7 7 7 7 7 8 9 10 11 11 11 12 12 13 14 14 15 16 17 16 18 20 22 20 21 23 24 23 22
51 46 42 41 38 35 30 25 21 18 16 13 11 8 7 6 6 6 6 7 9 10 11 12 13 13 13 11 10 7 5 5 8 11 14 16 18 19 19 20 21 19 19
58 55 50 46 43 38 34 30 27 24 20 16 14 11 8 7 5 3 3 2 2 2 2 2 3 3 5 8 10 11 13 14 15 15 13 12 12 11 11 11 11 11 10
61 58 55 51 45 42 37 34 32 28 25 21 19 19 16 15 13 12 12 11 10 9 8 7 7 7 7 6 7 8 11 13 14 14 14 14 13 12 11 10 10 10 10
64 60 56 53 47 43 40 37 33 30 28 25 24 24 21 19 18 19 19 19 19 18 17 16 15 15 14 14 13 13 13 14 15 15 15 14 13 12 11 11 11 12 13
65 61 57 53 50 47 43 39 36 33 32 30 29 28 27 26 25 25 26 26 25 24 24 23 22 20 19 20 20 19 19 19 20 20 19 17 16 16 15 15 16 16 16
66 62 58 55 51 48 46 43 41 39 37 35 34 32 32 32 31 31 31 32 32 30 28 27 26 24 24 24 24 24 26 27 27 25 24 24 23 22 21 21 21 21 21
66 63 59 56 54 51 49 47 44 42 39 37 35 34 35 35 36 37 36 36 35 34 33 31 30 29 29 29 29 29 30 30 29 29 29 29 28 27 26 26 26 26 26
Wind_Direction_850mb
326 328 323 323 318 311 308 308 309 307 305 301 297 293 285 277 279 280 273 262 246 243 242 245 239 238 235 235 234 237 238 242 257 237 232 232 231 238 235 234 236 240 240
334 329 327 326 318 314 315 314 313 310 308 303 300 295 286 285 280 275 273 259 248 246 235 233 236 233 232 230 230 233 236 230 219 235 242 234 231 219 219 222 228 229 236
336 331 333 332 326 323 318 317 313 313 309 305 306 302 290 290 272 270 267 250 237 230 233 231 225 223 222 230 230 230 230 235 233 224 223 230 214 218 216 221 226 229 234
338 337 339 337 337 338 330 326 321 317 314 313 313 311 303 286 279 278 266 252 242 238 223 240 238 229 231 233 229 231 230 231 237 228 234 226 220 222 215 219 214 228 228
345 347 345 344 348 344 340 336 330 324 319 318 317 316 317 309 297 287 271 273 244 235 226 225 237 244 237 236 232 224 224 233 233 232 225 230 237 223 215 221 221 213 214
352 354 356 357 357 355 353 349 341 336 335 329 325 320 314 314 300 292 257 259 253 239 232 230 238 247 243 240 236 222 216 218 224 219 225 231 226 229 234 223 215 207 189
358 9 9 10 11 11 11 10 9 8 0 356 353 343 338 333 293 302 224 270 288 259 240 223 227 252 253 248 241 227 215 214 223 233 232 235 233 235 237 225 212 205 197
3 22 20 22 24 25 25 27 29 32 30 32 35 33 27 28 9 348 205 187 178 148 143 168 216 229 235 232 233 226 218 215 217 228 232 236 240 246 230 224 215 210 190
346 26 29 30 30 32 35 35 37 47 54 59 61 57 48 43 55 111 130 126 120 106 92 86 97 122 127 173 205 215 218 225 225 227 228 230 234 237 234 226 212 195 171
331 12 35 34 38 41 40 41 47 58 65 71 74 74 71 70 88 112 113 108 103 98 93 86 77 76 78 85 112 138 178 184 216 233 232 235 234 226 221 217 217 195 179
304 324 353 7 11 33 44 48 50 53 59 64 69 71 79 80 84 87 89 94 91 95 94 90 89 86 84 85 86 90 97 105 122 154 166 170 175 182 186 191 196 196 179
286 300 326 354 7 20 31 34 41 45 49 56 60 62 62 70 78 80 77 80 89 90 88 85 87 90 89 84 83 88 97 99 107 114 122 128 136 143 146 157 165 173 178
276 276 286 337 35 38 45 61 66 68 68 74 75 76 73 70 71 75 85 86 83 84 83 83 90 94 90 91 86 89 94 100 107 111 110 112 117 122 127 134 144 152 147
257 246 226 192 99 80 73 69 66 74 76 78 77 74 76 78 76 76 78 80 80 80 84 85 85 86 84 83 92 93 94 95 98 103 110 113 113 116 119 122 127 127 136
229 221 196 171 143 122 106 99 96 97 90 85 78 80 79 76 74 74 77 82 80 74 77 80 81 79 79 79 80 83 87 94 102 105 111 114 116 117 121 120 122 130 141
214 212 194 174 160 148 140 126 114 101 94 93 91 85 90 86 84 85 80 80 81 74 77 78 77 75 75 77 81 86 92 96 97 100 104 109 116 122 126 125 125 133 140
209 209 199 183 169 162 153 134 118 97 90 86 87 81 76 78 76 71 71 69 76 79 77 79 79 80 82 85 86 88 95 99 100 105 111 115 118 120 123 126 130 135 137
208 209 210 197 187 180 175 165 152 139 121 109 94 87 83 78 77 79 79 80 79 83 81 84 85 88 92 95 98 99 101 102 105 110 116 119 121 126 129 130 128 131 133
209 207 209 203 198 195 190 189 186 178 168 154 129 107 92 91 89 97 103 109 108 105 101 93 89 82 70 63 70 82 93 103 112 117 122 125 126 125 130 130 132 133 136
209 207 210 210 206 204 202 200 203 208 210 209 207 193 180 160 157 152 141 129 124 121 123 128 133 132 133 139 142 140 129 116 120 127 131 132 133 134 136 136 136 140 144
208 207 207 211 211 208 208 210 214 218 223 226 235 235 239 238 244 242 238 223 203 167 151 137 133 136 144 153 158 165 169 176 179 177 175 171 164 161 160 158 156 156 153
209 210 211 212 212 215 215 217 221 225 230 233 242 243 245 242 240 247 251 250 250 250 250 251 248 240 231 222 209 200 192 187 188 186 185 185 183 179 180 181 182 181 182
210 211 213 216 216 218 221 225 228 233 236 241 248 252 254 255 252 251 252 252 248 246 246 248 249 250 249 247 241 231 216 207 204 201 201 202 202 203 205 204 200 193 187
212 212 215 219 221 222 227 231 234 238 240 244 250 254 257 258 256 254 253 252 247 245 244 244 244 245 246 246 243 238 232 226 223 221 220 220 223 225 225 224 220 215 213
213 213 216 220 224 227 230 233 236 239 241 244 247 250 253 255 254 252 252 252 250 247 245 246 247 249 249 247 241 235 229 226 225 224 225 228 231 233 232 229 225 224 224
213 215 218 221 225 228 232 235 238 240 242 245 249 252 254 254 251 248 247 245 244 244 243 243 246 249 249 246 242 238 233 230 229 230 232 234 237 239 239 236 235 235 236